sat.trackr.live / text

‹ back to catalog

GEMINI-POLLUX

NORAD 69000 · 2026-100W

PAYLOAD ACTIVE UNKNOWN

§ Identity

Operator
Country
ROC
Launch date
2026-05-03
Launch site
AFWTR
Launch vehicle
Mass (kg)
RCS (m²)

External: N2YO · Heavens-Above · Gunter

§ Orbital elements

Epoch: 2026-09-19T12:46:20.912736Z

Period
96.48 min
Inclination
97.7190°
Eccentricity
0.0000976
Mean motion
14.92533090 rev/d
Perigee alt
589.4 km
Apogee alt
590.7 km
Semi-major
6,968.2 km
B*
1.6602e-4
RAAN
158.2202°
Arg perigee
54.7971°
Mean anomaly
305.3340°
Rev number
2,077

§ Raw data

GEMINI-POLLUX1 69000U 26100W   26262.53218649  .00001650  00000+0  16602-3 0  99992 69000  97.7190 158.2202 0000976  54.7971 305.3340 14.92533090 20775

JSON: /api/v1/satellites/69000 · /tle

For live sub-satellite position, see the globe view (requires WebGL).

§ Visibility from observer

Set your observer location to see the next 7 days of passes ≥ 10°. The values pass through the URL so the page stays shareable.

No JS? Fill the form by hand. The geolocation button needs JavaScript.